• In Netherlands
  • List of Countries
  • For 7 days
  • Water Temperature
  • Satellite Maps
  • Weather Map
  • Weather Widgets
  • user-avatar
    Login

    Hourly Weather Ordino

    Today, 23 January, Monday

    Time Temperature Precipitation Wind Pressure Humidity
    00:00 -5°C° 0.2 mm 2 mps 631 mmHg 92%
    01:00 -5°C° 0.1 mm 2 mps 631 mmHg 92%
    02:00 -5°C° 0.1 mm 2 mps 631 mmHg 92%
    03:00 -5°C° 0.1 mm 2 mps 631 mmHg 91%
    04:00 -5°C° 0.2 mm 2 mps 631 mmHg 92%
    05:00 -4°C° 0.2 mm 2 mps 631 mmHg 92%
    06:00 -4°C° 0.2 mm 2 mps 631 mmHg 92%
    07:00 -4°C° 0.4 mm 2 mps 631 mmHg 91%
    08:00 -3°C° 0.4 mm 2 mps 631 mmHg 90%
    09:00 -3°C° 0.4 mm 2 mps 632 mmHg 89%
    10:00 -2°C° 0.4 mm 2 mps 632 mmHg 88%
    11:00 -2°C° 0.4 mm 2 mps 632 mmHg 87%
    12:00 -1°C° 0.4 mm 2 mps 632 mmHg 86%
    13:00 -1°C° 0.2 mm 2 mps 632 mmHg 85%
    14:00 -1°C° 0.2 mm 2 mps 632 mmHg 85%
    15:00 -1°C° 0.2 mm 2 mps 632 mmHg 85%
    16:00 -2°C° 0.1 mm 2 mps 632 mmHg 87%
    17:00 -3°C° 0.1 mm 2 mps 631 mmHg 90%
    18:00 -5°C° 0.1 mm 2 mps 631 mmHg 93%
    19:00 -5°C° 0.1 mm 2 mps 631 mmHg 92%
    20:00 -5°C° 0.1 mm 2 mps 631 mmHg 91%
    21:00 -5°C° 0.1 mm 2 mps 631 mmHg 90%
    22:00 -5°C° 0 mm 2 mps 631 mmHg 89%
    23:00 -5°C° 0 mm 2 mps 631 mmHg 89%

    Tomorrow, 24 January, Tuesday

    Time Temperature Precipitation Wind Pressure Humidity
    00:00 -6°C° 0 mm 3 mps 631 mmHg 88%
    01:00 -7°C° 0 mm 3 mps 631 mmHg 87%
    02:00 -7°C° 0 mm 3 mps 631 mmHg 86%
    03:00 -7°C° 0 mm 3 mps 631 mmHg 85%
    04:00 -8°C° 0 mm 3 mps 631 mmHg 83%
    05:00 -8°C° 0 mm 3 mps 631 mmHg 80%
    06:00 -8°C° 0 mm 3 mps 630 mmHg 77%
    07:00 -7°C° 0 mm 3 mps 631 mmHg 75%
    08:00 -6°C° 0 mm 3 mps 632 mmHg 72%
    09:00 -5°C° 0 mm 3 mps 633 mmHg 70%
    10:00 -4°C° 0 mm 3 mps 633 mmHg 68%
    11:00 -1°C° 0 mm 3 mps 633 mmHg 66%
    12:00 0°C° 0 mm 3 mps 634 mmHg 64%
    13:00 0°C° 0 mm 3 mps 634 mmHg 65%
    14:00 0°C° 0 mm 3 mps 633 mmHg 66%
    15:00 -1°C° 0 mm 3 mps 633 mmHg 67%
    16:00 -4°C° 0 mm 3 mps 632 mmHg 72%
    17:00 -7°C° 0 mm 3 mps 632 mmHg 77%
    18:00 -8°C° 0 mm 2 mps 631 mmHg 83%
    19:00 -8°C° 0 mm 2 mps 631 mmHg 80%
    20:00 -8°C° 0 mm 2 mps 631 mmHg 77%
    21:00 -10°C° 0 mm 3 mps 631 mmHg 75%
    22:00 -9°C° 0 mm 2 mps 631 mmHg 73%
    23:00 -9°C° 0 mm 2 mps 631 mmHg 72%

    Day after tomorrow, 25 January, Wednesday

    Time Temperature Precipitation Wind Pressure Humidity
    00:00 -9°C° 0 mm 2 mps 631 mmHg 70%
    01:00 -10°C° 0 mm 2 mps 630 mmHg 71%
    02:00 -10°C° 0 mm 2 mps 630 mmHg 71%
    03:00 -10°C° 0 mm 2 mps 630 mmHg 72%
    04:00 -10°C° 0 mm 2 mps 630 mmHg 73%
    05:00 -10°C° 0 mm 2 mps 630 mmHg 74%
    06:00 -10°C° 0 mm 2 mps 630 mmHg 75%
    07:00 -9°C° 0 mm 2 mps 630 mmHg 75%
    08:00 -6°C° 0 mm 1 mps 631 mmHg 74%
    09:00 -4°C° 0 mm 1 mps 632 mmHg 73%
    10:00 -3°C° 0 mm 1 mps 632 mmHg 72%
    11:00 -2°C° 0 mm 1 mps 632 mmHg 70%
    12:00 -1°C° 0 mm 1 mps 633 mmHg 69%
    13:00 -1°C° 0.3 mm 1 mps 632 mmHg 72%
    14:00 -1°C° 0.3 mm 1 mps 632 mmHg 75%
    15:00 -2°C° 0.3 mm 1 mps 632 mmHg 77%
    16:00 -3°C° 0.4 mm 1 mps 631 mmHg 83%
    17:00 -4°C° 0.4 mm 1 mps 631 mmHg 89%
    18:00 -7°C° 0.4 mm 1 mps 631 mmHg 95%
    19:00 -7°C° 0.1 mm 1 mps 631 mmHg 94%
    20:00 -8°C° 0.1 mm 1 mps 631 mmHg 93%
    21:00 -9°C° 0.1 mm 1 mps 631 mmHg 92%
    22:00 -10°C° 0 mm 1 mps 630 mmHg 90%
    23:00 -10°C° 0 mm 1 mps 630 mmHg 89%

    26 January, Thursday

    Time Temperature Precipitation Wind Pressure Humidity
    00:00 -11°C° 0 mm 1 mps 629 mmHg 88%
    01:00 -11°C° 0 mm 1 mps 629 mmHg 87%
    02:00 -10°C° 0 mm 1 mps 629 mmHg 86%
    03:00 -10°C° 0 mm 1 mps 629 mmHg 85%
    04:00 -10°C° 0 mm 1 mps 629 mmHg 85%
    05:00 -10°C° 0 mm 1 mps 629 mmHg 85%
    06:00 -9°C° 0 mm 1 mps 629 mmHg 85%
    07:00 -8°C° 0 mm 2 mps 630 mmHg 82%
    08:00 -6°C° 0 mm 2 mps 631 mmHg 78%
    09:00 -4°C° 0 mm 2 mps 632 mmHg 74%
    10:00 -2°C° 0 mm 2 mps 633 mmHg 73%
    11:00 -1°C° 0 mm 2 mps 633 mmHg 71%
    12:00 0°C° 0 mm 3 mps 633 mmHg 70%
    13:00 0°C° 0 mm 3 mps 633 mmHg 72%
    14:00 0°C° 0 mm 3 mps 633 mmHg 74%
    15:00 0°C° 0 mm 3 mps 632 mmHg 76%
    16:00 -2°C° 0 mm 2 mps 632 mmHg 81%
    17:00 -3°C° 0 mm 2 mps 631 mmHg 86%
    18:00 -5°C° 0 mm 2 mps 630 mmHg 90%
    19:00 -5°C° 0 mm 2 mps 631 mmHg 89%
    20:00 -5°C° 0 mm 2 mps 631 mmHg 88%
    21:00 -5°C° 0 mm 2 mps 631 mmHg 88%
    22:00 -5°C° 0 mm 2 mps 631 mmHg 87%
    23:00 -5°C° 0 mm 2 mps 630 mmHg 87%

    27 January, Friday

    Time Temperature Precipitation Wind Pressure Humidity
    00:00 -4°C° 0 mm 2 mps 630 mmHg 87%
    01:00 -5°C° 0 mm 2 mps 630 mmHg 87%
    02:00 -5°C° 0 mm 2 mps 630 mmHg 86%
    03:00 -5°C° 0 mm 2 mps 629 mmHg 86%
    04:00 -5°C° 0 mm 2 mps 629 mmHg 86%
    05:00 -5°C° 0 mm 2 mps 629 mmHg 85%
    06:00 -4°C° 0 mm 2 mps 629 mmHg 85%
    07:00 -4°C° 0.1 mm 2 mps 630 mmHg 83%
    08:00 -3°C° 0.1 mm 2 mps 630 mmHg 82%
    09:00 -2°C° 0.1 mm 2 mps 631 mmHg 80%
    10:00 -1°C° 0.1 mm 2 mps 631 mmHg 79%
    11:00 +1°C° 0.1 mm 2 mps 632 mmHg 77%
    12:00 +2°C° 0.1 mm 2 mps 632 mmHg 76%
    13:00 +2°C° 0 mm 2 mps 632 mmHg 77%
    14:00 +2°C° 0 mm 2 mps 632 mmHg 77%
    15:00 +2°C° 0 mm 2 mps 632 mmHg 78%
    16:00 +1°C° 0 mm 2 mps 632 mmHg 81%
    17:00 -2°C° 0 mm 2 mps 632 mmHg 85%
    18:00 -1°C° 0 mm 1 mps 631 mmHg 88%
    19:00 -1°C° 0 mm 1 mps 632 mmHg 87%
    20:00 -2°C° 0 mm 1 mps 632 mmHg 86%
    21:00 -2°C° 0 mm 1 mps 633 mmHg 84%
    22:00 -2°C° 0 mm 1 mps 633 mmHg 85%
    23:00 -3°C° 0 mm 1 mps 633 mmHg 85%

    28 January, Saturday

    Time Temperature Precipitation Wind Pressure Humidity
    00:00 -3°C° 0 mm 1 mps 633 mmHg 85%
    01:00 -3°C° 0.1 mm 1 mps 633 mmHg 86%
    02:00 -3°C° 0.1 mm 1 mps 634 mmHg 86%
    03:00 -2°C° 0.1 mm 1 mps 634 mmHg 87%
    04:00 -3°C° 0 mm 1 mps 634 mmHg 88%
    05:00 -3°C° 0 mm 1 mps 635 mmHg 90%
    06:00 -3°C° 0 mm 1 mps 635 mmHg 91%
    07:00 -2°C° 0 mm 1 mps 636 mmHg 89%
    08:00 0°C° 0 mm 1 mps 637 mmHg 86%
    09:00 +1°C° 0 mm 1 mps 638 mmHg 84%
    10:00 +2°C° 0 mm 1 mps 639 mmHg 81%
    11:00 +3°C° 0 mm 1 mps 639 mmHg 78%
    12:00 +4°C° 0 mm 1 mps 640 mmHg 75%
    13:00 +4°C° 0 mm 1 mps 640 mmHg 75%
    14:00 +4°C° 0 mm 1 mps 640 mmHg 76%
    15:00 +4°C° 0 mm 1 mps 640 mmHg 76%
    16:00 +2°C° 0 mm 1 mps 639 mmHg 81%
    17:00 0°C° 0 mm 1 mps 639 mmHg 86%
    18:00 -4°C° 0 mm 2 mps 638 mmHg 91%
    19:00 -4°C° 0 mm 2 mps 638 mmHg 91%
    20:00 -5°C° 0 mm 2 mps 639 mmHg 91%
    21:00 -5°C° 0 mm 2 mps 639 mmHg 91%
    22:00 -6°C° 0 mm 2 mps 639 mmHg 89%
    23:00 -6°C° 0 mm 2 mps 639 mmHg 86%
    Show more